Location: Presov
(49.0000°N, 21.2500°E)
Time: 21:59:51
(UTC+02:00)

Courier 1B Rocket - Visible Passes

Search period start: 19 April 2021 00:00
Search period end: 29 April 2021 00:00
Orbit: 920 x 1202 km, 28.2° (Epoch: 19 April)

Date Brightness Start Highest point End Pass type
(mag) Time Alt. Az. Time Alt. Az. Time Alt. Az.
19 Apr 7.1 22:02:52 10° SSW 22:03:32 11° SSW 22:03:32 11° SSW visible
20 Apr 6.9 21:02:52 10° SSW 21:05:23 12° S 21:06:25 12° SSE visible
21 Apr 7.0 21:53:51 10° SSW 21:55:36 12° SSW 21:55:36 12° SSW visible
22 Apr 6.9 20:53:29 10° SSW 20:56:06 12° S 20:58:21 11° SSE visible
23 Apr 7.0 21:45:24 10° SSW 21:47:25 11° S 21:47:25 11° S visible
24 Apr 7.0 20:44:36 10° SSW 20:46:50 12° S 20:49:07 10° SSE visible
26 Apr 7.1 20:36:36 10° SSW 20:37:36 10° S 20:38:36 10° S visible
